Hourly Data Report for November 12, 2020

VICTORIA UNIVERSITY CS
BRITISH COLUMBIA
Current Station Operator: ECCC - MSC

48°27'25.200" N
123°18'16.600" W
60.10 m
1018598
71783
WYJ

Download Data

Hourly Data (November 2020)
Hourly Data Report for November 12, 2020
TIME
LST
Temp Definition
°C
Dew Point Definition
°C
Rel Hum Definition
%
Precip. Amount Definition
mm

Wind Dir Definition
10's deg

Wind Spd Definition
km/h
Visibility Definition
km
Stn Press Definition
kPa
Hmdx Definition


Wind Chill Definition


Weather Definition


00:00 5.6 4.4 92 0.0 9 4   101.29     LegendNANA
01:00 5.5 3.5 87 0.0 15 2   101.24     LegendNANA
02:00 5.6 3.9 89 0.0 10 3   101.18     LegendNANA
03:00 6.0 4.7 92 0.0 12 3   101.13     LegendNANA
04:00 6.0 4.6 90 0.0 13 2   101.07     LegendNANA
05:00 5.5 4.3 91 0.0 11 3   101.03     LegendNANA
06:00 5.6 4.0 89 0.0 11 4   100.97     LegendNANA
07:00 5.9 4.4 91 0.0 14 4   100.87     LegendNANA
08:00 5.9 4.6 91 0.0 12 3   100.82     LegendNANA
09:00 6.2 4.9 91 0.0 10 4   100.74     LegendNANA
10:00 6.7 5.0 89 0.0 10 4   100.65     LegendNANA
11:00 7.8 5.5 85 0.0 12 4   100.53     LegendNANA
12:00 7.8 4.8 81 0.0 13 3   100.37     LegendNANA
13:00 7.3 4.4 82 0.0 15 4   100.27     LegendNANA
14:00 7.0 4.5 84 0.0 9 2   100.12     LegendNANA
15:00 7.3 4.9 85 0.0 13 4   99.99     LegendNANA
16:00 6.8 5.8 93 0.6 13 1   99.91     LegendNANA
17:00 6.6 5.9 96 0.6 9 2   99.80     LegendNANA
18:00 6.2 6.0 99 1.2 30 3   99.77     LegendNANA
19:00 6.1 6.0 100 2.3 4 2   99.69     LegendNANA
20:00 5.8 5.8 100 2.6 34 2   99.57     LegendNANA
21:00 5.9 5.9 100 3.2 7 2   99.51     LegendNANA
22:00 6.0 5.9 100 3.2 8 2   99.39     LegendNANA
23:00 5.9 5.9 100 1.5 35 3   99.19     LegendNANA

Notes on Data Quality.

Legend

  • E = Estimated
  • M = Missing
  • NA = Not Available*
  • [empty] = Indicates an unobserved value
Date modified: